BREEZE-M DEB, 38604

Orbit data source: Space-Track

BREEZE-M DEB, 38604 is space debris in HEO originally from a launch on Fri, 14 Mar 2008 UTC launched from the Tyuratam Missile And Space Complex (TTMTR). Debris objects in space refer to the collection of defunct objects orbiting the Earth. Examples of debris include non-operational satellites, rocket bodies, and fragments generated from explosions, collisions, or faulty payload assembly.

Loading next visibility...
Identifier
38604, 2008-011BB
Orbit
HEO
Country
Flag of CISCIS
Related business
Manufacturer
Unknown
Mission
Spacecraft
Bus & Motor
Unknown
Mass
Unknown
Launch date (UTC)
2008-03-14 (18 years ago)
Launch vehicle
Unknown
Launch site
Tyuratam Missile And Space Complex (TTMTR)
Object type
Payload
Rocket body
Debris
Shape & HBR
Unknown shape, 0.2 m
Radar Cross Section
Medium (>0.1 m² and <1 m²)

Expand to show TLE details & history
Last TLE update: 3 months ago

TLE from 3 months ago
0 BREEZE-M DEB
1 38604U 08011BB  26083.98599248 -.00000210  00000-0 -12226-2 0  9994
2 38604  49.2843 302.4085 6504728 271.0066  20.6503  3.09284098148944
Epoch: 2026-03-24T23:39Z
TLE epoch observation values (Epoch: 2026-03-24T23:39:49.750Z)
Latitude
-0°
Longitude
125.02768°
Altitude
4,989.932 km
Speed
7.078 km/s
True Right ascension
20h 09m 45s
True Declination
0° 00' 00"
Sunlit
Object was in daylight at epoch
Visualization orbit readout
Latitude
Unknown
Longitude
Unknown
Altitude
Unknown
Speed
Unknown
Apparent Right ascension
Unknown
Apparent Declination
Unknown
Sunlit
N/A
Visualization observer readout
Local Sidereal Time
11:02:09
Azimuth
Unknown
Elevation
Unknown
Doppler factor
Unknown
Orbital elements
Apogee altitude
26,465.708 km
Perigee altitude
577.335 km
Semi-major axis
19,899.658 km
Eccentricity
0.65047
Inclination
49.2843°
RAAN
302.4085°
Arg. of periapsis
271.0066°
True anomaly
88.92517°
Mean anomaly
20.6503°
Eccentric anomaly
48.61132°
Mean motion
0.77317 °/min
Orbital period
465.62 mins
BSTAR
-0.0012226
Loading maneuver chart data...
Computing Atmospheric mass density...
Loading historical data...
Loading historical data...
Loading historical data...
Loading historical data...
Loading historical data...
Loading historical data...
Loading historical data...

Documentation

Showing up to 5 results
|